星链-31848 (STARLINK-31848 )

导读 | 星芒AI

STARLINK-31848 是 SpaceX Starlink 卫星互联网项目中的一颗低轨卫星,属于第6批发射的星链卫星群。该卫星于2023年发射,运行在约550公里高的近地轨道,旨在为全球提供高速互联网服务。它采用先进的相控阵天线和激光通信技术,支持低延迟、高带宽的网络连接。作为星链计划的重要组成部分,STARLINK-31848 有助于扩大卫星覆盖范围,提升偏远地区的网络接入能力。

基本信息
目录编号:
59784
目录名称:
STARLINK-31848
国际标识:
2024-093C
轨道中心:
EARTH
卫星名称:
星链-31848
卫星全名:
星链-31848 (STARLINK-31848 )
卫星状态:
在轨 (已飞行581 天)
发射日期:
2024-05-18 UTC
国别 :
美国 (US)
星等 :
--
轨道信息
数据来源 国际轨道数据
星历时间: 2025-12-19T14:01:28+0800
20小时前
查看轨道信息
半长轴: 6861.196km
偏心率: 0.0001418
轨道倾角: 43.000°
近地点辐角 348.419°
升交点赤经 299.697°
平近点角 11.663°
近地点: 482.086km
远地点: 484.032km
周期: 94.267分钟
每日圈数: 15.275769
详细信息
固有亮度:
5
最大亮度:
1.5
卫星平台:
Starlink v2.0 mini
覆盖范围:
全球
运营商:
太空探索技术公司
运营商所在国:
美国
制造商(研发单位):
太空探索技术公司
制造商所在国:
美国
使用方式:
暂无
卫星简介
星链(Starlink)计划是由太空探索技术公司(SpaceX)提出的一个巨型低轨卫星互联网星座项目,计划在2019年至2024年间在太空搭建由约1.2万颗卫星组成的“星链”网络,其中1584颗将部署在地球上空550千米处的近地轨道,并从2020年开始工作。该卫星仍在工作。
2D轨道图
3D轨道图
轨道高度分析图
轨道倾角分析图
轨道综合分析图
查看轨道综合分析图